KB1FPD Weather Reports


time (UTC)temp
C
wind
direction
speed
KPH
gust
KPH
rain 1hr
cm
rain 24hr
cm
rain mn
cm
humidity
%
barometer
mb
20260509224130 19 245 1.6 8.0 0.00 0.03 0.03 64 1009.3
20260509223634 19 169 1.6 8.0 0.00 0.03 0.03 63 1009.3
20260509223133 19 169 1.6 8.0 0.00 0.03 0.03 63 1009.4
20260509222633 19 165 1.6 8.0 0.00 0.03 0.03 62 1009.5
20260509222125 18 157 3.2 8.0 0.00 0.03 0.03 63 1009.5
20260509221632 18 157 4.8 11.3 0.00 0.03 0.03 62 1009.5
20260509221129 18 156 4.8 11.3 0.00 0.03 0.03 63 1009.4
20260509220626 19 167 4.8 11.3 0.00 0.03 0.03 61 1009.4
20260509220128 18 165 4.8 11.3 0.00 0.03 0.03 64 1009.4
20260509215627 18 123 3.2 11.3 0.00 0.03 0.03 61 1009.2
20260509215125 18 155 3.2 9.7 0.00 0.03 0.03 63 1009.4
20260509214630 18 116 3.2 9.7 0.00 0.03 0.03 63 1009.2
20260509214123 18 115 4.8 9.7 0.00 0.03 0.03 63 1009.3
20260509213622 18 113 3.2 9.7 0.00 0.03 0.03 62 1009.3
20260509213122 18 113 3.2 9.7 0.00 0.03 0.03 63 1009.3
20260509212622 18 113 3.2 9.7 0.00 0.03 0.03 61 1009.4
20260509212120 18 115 1.6 9.7 0.00 0.03 0.03 64 1009.4
20260509211621 18 105 1.6 6.4 0.00 0.03 0.03 63 1009.4
20260509211117 18 105 3.2 6.4 0.00 0.03 0.03 63 1009.4
20260509210617 18 112 1.6 6.4 0.00 0.03 0.03 67 1009.4
20260509210117 17 116 0.0 4.8 0.00 0.03 0.03 66 1009.3
20260509205616 17 116 1.6 4.8 0.00 0.03 0.03 66 1009.4
20260509205114 17 117 1.6 3.2 0.00 0.03 0.03 65 1009.5
20260509204615 17 117 0.0 3.2 0.00 0.03 0.03 65 1009.6
20260509204116 17 117 0.0 3.2 0.00 0.03 0.03 63 1009.6
20260509203611 16 117 0.0 3.2 0.00 0.03 0.03 64 1009.7
20260509203110 16 117 0.0 3.2 0.00 0.03 0.03 65 1009.7
20260509202610 16 117 1.6 4.8 0.00 0.03 0.03 67 1009.7
20260509202109 16 117 3.2 6.4 0.00 0.03 0.03 63 1009.7
20260509201610 16 117 3.2 6.4 0.00 0.03 0.03 65 1009.6
20260509201108 16 117 3.2 6.4 0.00 0.03 0.03 67 1009.6
20260509200609 16 117 3.2 6.4 0.00 0.03 0.03 66 1009.7
20260509200108 16 118 3.2 6.4 0.00 0.03 0.03 65 1009.8
20260509195608 16 118 1.6 6.4 0.00 0.03 0.03 66 1009.8
20260509195106 16 114 1.6 6.4 0.00 0.03 0.03 68 1009.7
20260509194602 16 113 1.6 9.7 0.00 0.03 0.03 66 1009.8
20260509194059 16 111 4.8 9.7 0.00 0.03 0.03 65 1009.7
20260509193556 16 109 6.4 12.9 0.00 0.03 0.03 67 1009.8
20260509193050 16 143 8.0 12.9 0.00 0.03 0.03 66 1009.7
20260509192549 17 112 6.4 12.9 0.00 0.03 0.03 66 1009.8
20260509192052 17 150 6.4 12.9 0.00 0.03 0.03 65 1009.7
20260509191548 17 147 6.4 12.9 0.00 0.03 0.03 65 1009.8
20260509191045 17 172 8.0 17.7 0.00 0.03 0.03 65 1009.6
20260509190546 17 155 8.0 17.7 0.00 0.03 0.03 65 1009.7
20260509190045 17 147 6.4 17.7 0.00 0.03 0.03 67 1009.8
20260509185546 17 172 6.4 20.9 0.00 0.03 0.03 66 1009.7
20260509185045 17 151 8.0 20.9 0.00 0.03 0.03 67 1009.8
20260509184550 17 78 6.4 19.3 0.00 0.03 0.03 63 1009.8
20260509184049 17 176 8.0 17.7 0.00 0.03 0.03 68 1009.9
20260509183547 17 146 8.0 19.3 0.00 0.03 0.03 63 1009.8
20260509183045 17 180 6.4 19.3 0.00 0.03 0.03 68 1009.9
20260509182550 17 160 6.4 19.3 0.00 0.03 0.03 63 1010.1
20260509182042 17 151 8.0 19.3 0.00 0.03 0.03 69 1010.0
20260509181540 16 159 6.4 19.3 0.00 0.03 0.03 69 1010.0
20260509181040 16 141 4.8 14.5 0.00 0.03 0.03 72 1010.1
20260509180537 16 159 6.4 14.5 0.00 0.03 0.03 72 1010.4
20260509180038 16 175 4.8 12.9 0.00 0.03 0.03 70 1010.5
20260509175535 16 161 6.4 14.5 0.00 0.03 0.03 73 1010.6
20260509175035 16 129 6.4 14.5 0.00 0.03 0.03 73 1010.8
20260509174534 16 188 4.8 14.5 0.00 0.03 0.03 74 1011.0
20260509174038 16 165 4.8 14.5 0.00 0.03 0.03 76 1011.2
20260509173532 16 186 3.2 11.3 0.00 0.03 0.03 71 1011.1
20260509173031 15 155 3.2 12.9 0.00 0.03 0.03 76 1011.3
20260509172532 15 163 3.2 12.9 0.00 0.03 0.03 73 1011.3
20260509172031 15 170 1.6 8.0 0.00 0.03 0.03 79 1011.2
20260509171530 15 180 0.0 8.0 0.00 0.03 0.03 77 1011.4
20260509171029 14 270 0.0 1.6 0.00 0.03 0.03 76 1011.5
20260509170029 14 270 3.2 6.4 0.00 0.03 0.03 76 1011.4
20260509165529 14 333 1.6 6.4 0.00 0.03 0.03 77 1011.5
20260509165030 14 336 0.0 4.8 0.00 0.03 0.03 77 1011.5
20260509164531 14 334 1.6 4.8 0.00 0.03 0.03 76 1011.2
20260509164029 14 48 3.2 6.4 0.00 0.03 0.03 77 1011.0
20260509163529 14 20 3.2 6.4 0.00 0.03 0.03 77 1011.0
20260509163029 14 15 3.2 8.0 0.00 0.03 0.03 76 1011.0
20260509162529 14 10 1.6 8.0 0.00 0.03 0.03 76 1011.2
20260509162037 13 246 1.6 4.8 0.00 0.03 0.03 78 1011.4
20260509161532 13 244 3.2 6.4 0.00 0.03 0.03 79 1011.5
20260509161029 13 98 3.2 9.7 0.00 0.03 0.03 78 1011.5
20260509160530 13 101 4.8 9.7 0.00 0.03 0.03 78 1011.5
20260509160030 13 104 4.8 9.7 0.00 0.03 0.03 79 1011.5
20260509155529 14 105 3.2 9.7 0.00 0.03 0.03 78 1011.5
20260509155029 13 276 1.6 4.8 0.00 0.03 0.03 77 1011.7
20260509154533 13 280 1.6 4.8 0.00 0.03 0.03 76 1011.7
20260509154028 14 279 1.6 4.8 0.00 0.03 0.03 78 1011.7
20260509153527 13 279 1.6 4.8 0.00 0.03 0.03 77 1011.5
20260509153027 13 278 1.6 4.8 0.00 0.03 0.03 78 1011.5
20260509152525 13 279 3.2 9.7 0.00 0.03 0.03 77 1011.7
20260509152025 13 276 3.2 9.7 0.00 0.03 0.03 78 1011.5
20260509151528 13 271 3.2 9.7 0.00 0.03 0.03 77 1011.8
20260509151021 13 274 1.6 9.7 0.00 0.03 0.03 79 1011.6
20260509150517 13 226 1.6 6.4 0.00 0.03 0.03 80 1011.8
20260509150008 13 205 3.2 9.7 0.00 0.03 0.03 80 1011.8
20260509145515 13 135 4.8 12.9 0.00 0.03 0.03 84 1011.9
20260509145007 12 104 6.4 12.9 0.00 0.03 0.03 83 1011.8
20260509144507 12 99 9.7 12.9 0.00 0.03 0.03 84 1011.8
20260509144009 12 93 6.4 12.9 0.00 0.03 0.03 87 1011.7
20260509143506 12 87 3.2 8.0 0.00 0.03 0.03 87 1011.7
20260509143009 12 39 3.2 8.0 0.00 0.03 0.03 86 1011.5
20260509142511 12 343 1.6 8.0 0.00 0.03 0.03 86 1011.5
20260509142010 11 351 3.2 8.0 0.00 0.03 0.03 85 1011.4
20260509141509 11 356 3.2 9.7 0.00 0.03 0.03 84 1011.3
20260509141007 11 343 3.2 9.7 0.00 0.03 0.03 84 1011.3
20260509140507 11 340 3.2 11.3 0.03 0.03 0.03 86 1011.3
20260509140011 11 93 4.8 12.9 0.03 0.03 0.03 86 1011.5
20260509135506 11 84 3.2 12.9 0.03 0.03 0.03 84 1011.7
20260509135007 11 343 3.2 8.0 0.03 0.03 0.03 84 1011.6
20260509134503 11 171 1.6 8.0 0.03 0.03 0.03 84 1011.7
20260509133958 11 167 3.2 8.0 0.03 0.03 0.03 84 1011.8
20260509133501 11 166 3.2 8.0 0.03 0.03 0.03 83 1011.5
20260509132957 11 116 4.8 12.9 0.03 0.03 0.03 83 1011.7
20260509132459 11 10 3.2 12.9 0.03 0.03 0.03 81 1011.5
20260509131954 11 79 4.8 11.3 0.03 0.03 0.03 81 1011.8
20260509131456 12 95 4.8 12.9 0.03 0.03 0.03 81 1011.6
20260509130952 12 77 3.2 12.9 0.03 0.03 0.03 79 1011.4
20260509130454 12 296 3.2 12.9 0.00 0.00 0.00 77 1011.2
20260509125955 12 20 3.2 6.4 0.00 0.00 0.00 75 1011.3
20260509125452 12 348 3.2 8.0 0.00 0.00 0.00 73 1011.4
20260509124956 12 44 3.2 8.0 0.00 0.00 0.00 73 1011.4
20260509124452 12 20 4.8 11.3 0.00 0.00 0.00 73 1011.4
20260509123950 12 150 4.8 11.3 0.00 0.00 0.00 74 1011.4
20260509123455 13 145 4.8 12.9 0.00 0.00 0.00 72 1011.4
20260509122950 13 282 3.2 12.9 0.00 0.00 0.00 69 1011.4
20260509122443 13 261 4.8 17.7 0.00 0.00 0.00 69 1011.4
20260509121944 13 229 6.4 17.7 0.00 0.00 0.00 67 1011.3
20260509121444 13 247 6.4 16.1 0.00 0.00 0.00 67 1011.2
20260509120943 13 274 8.0 19.3 0.00 0.00 0.00 67 1011.3
20260509120443 13 272 9.7 19.3 0.00 0.00 0.00 67 1011.2
20260509115943 13 257 11.3 22.5 0.00 0.00 0.00 69 1011.2
20260509115445 12 257 11.3 22.5 0.00 0.00 0.00 70 1011.2
20260509114945 12 261 9.7 19.3 0.00 0.00 0.00 71 1011.1
20260509114447 12 285 9.7 19.3 0.00 0.00 0.00 73 1011.1
20260509113943 12 293 9.7 17.7 0.00 0.00 0.00 73 1011.0
20260509113443 11 277 6.4 17.7 0.00 0.00 0.00 74 1011.1
20260509112943 11 271 4.8 14.5 0.00 0.00 0.00 75 1011.2
20260509112444 11 278 4.8 20.9 0.00 0.00 0.00 75 1011.4
20260509111937 11 253 3.2 20.9 0.00 0.00 0.00 74 1011.4
20260509111437 11 278 1.6 9.7 0.00 0.00 0.00 75 1011.4
20260509110940 11 271 1.6 8.0 0.00 0.00 0.00 73 1011.4
20260509110439 11 340 0.0 4.8 0.00 0.00 0.00 74 1011.5
20260509105937 11 336 0.0 3.2 0.00 0.00 0.00 75 1011.5
20260509105437 10 338 0.0 3.2 0.00 0.00 0.00 75 1011.5
20260509104934 10 338 0.0 3.2 0.00 0.00 0.00 74 1011.3
20260509104434 10 338 1.6 4.8 0.00 0.00 0.00 74 1011.2
20260509103942 10 338 1.6 4.8 0.00 0.00 0.00 74 1011.2
20260509103434 10 338 1.6 12.9 0.00 0.00 0.00 76 1011.1
20260509102936 10 340 4.8 12.9 0.00 0.00 0.00 74 1011.0
20260509102436 10 247 6.4 12.9 0.00 0.00 0.00 76 1011.0
20260509101935 10 118 8.0 12.9 0.00 0.00 0.00 78 1010.7
20260509101434 10 141 4.8 9.7 0.00 0.00 0.00 77 1010.9
20260509100936 10 173 1.6 9.7 0.00 0.00 0.00 73 1010.9
20260509100433 10 188 0.0 3.2 0.00 0.00 0.00 73 1010.9
20260509095935 10 188 0.0 1.6 0.00 0.00 0.00 71 1011.0
20260509095435 10 188 0.0 1.6 0.00 0.00 0.00 72 1010.9
20260509094937 10 188 0.0 1.6 0.00 0.00 0.00 73 1010.9
20260509094434 11 188 0.0 1.6 0.00 0.00 0.00 72 1010.9
20260509093934 11 188 0.0 3.2 0.00 0.00 0.00 72 1010.9
20260509093437 11 188 0.0 3.2 0.00 0.00 0.00 71 1011.0
20260509092933 11 188 1.6 8.0 0.00 0.00 0.00 71 1011.0
20260509092435 11 187 3.2 16.1 0.00 0.00 0.00 71 1010.9
20260509091931 11 185 4.8 16.1 0.00 0.00 0.00 70 1011.0
20260509091433 11 175 4.8 11.3 0.00 0.00 0.00 71 1010.9
20260509090931 11 142 3.2 8.0 0.00 0.00 0.00 71 1011.0
20260509090429 10 184 1.6 8.0 0.00 0.00 0.00 71 1011.0
20260509085930 10 185 1.6 6.4 0.00 0.00 0.00 71 1011.0
20260509085429 11 185 3.2 8.0 0.00 0.00 0.00 71 1011.0
20260509084929 11 165 1.6 8.0 0.00 0.00 0.00 71 1011.0
20260509084430 11 157 0.0 11.3 0.00 0.00 0.00 71 1010.9
20260509083929 11 157 1.6 11.3 0.00 0.00 0.00 70 1011.0
20260509083430 11 156 3.2 12.9 0.00 0.00 0.00 70 1011.0
20260509082929 11 156 6.4 12.9 0.00 0.00 0.00 70 1011.0
20260509082429 11 151 4.8 12.9 0.00 0.00 0.00 70 1010.9
20260509081929 11 157 3.2 12.9 0.00 0.00 0.00 71 1010.9
20260509081430 11 157 1.6 6.4 0.00 0.00 0.00 70 1011.0
20260509080929 11 157 1.6 6.4 0.00 0.00 0.00 70 1011.0
20260509080429 11 160 1.6 6.4 0.00 0.00 0.00 70 1011.1
20260509075931 11 161 1.6 6.4 0.00 0.00 0.00 71 1011.1
20260509075429 11 159 1.6 6.4 0.00 0.00 0.00 70 1010.9
20260509074930 11 159 0.0 3.2 0.00 0.00 0.00 71 1011.0
20260509074431 11 159 1.6 6.4 0.00 0.00 0.00 69 1011.0
20260509073930 11 159 3.2 8.0 0.00 0.00 0.00 68 1011.1
20260509073429 11 154 4.8 11.3 0.00 0.00 0.00 67 1011.0
20260509072929 11 155 4.8 11.3 0.00 0.00 0.00 67 1011.0
20260509072428 11 159 3.2 11.3 0.00 0.00 0.00 67 1011.1
20260509071949 11 170 3.2 8.0 0.00 0.00 0.00 67 1011.1
20260509071429 11 176 3.2 8.0 0.00 0.00 0.00 67 1011.0
20260509070929 11 164 3.2 8.0 0.00 0.00 0.00 67 1011.1
20260509070429 11 163 3.2 8.0 0.00 0.00 0.00 67 1011.1
20260509065930 11 163 3.2 8.0 0.00 0.00 0.00 68 1011.2
20260509064929 11 160 1.6 4.8 0.00 0.00 0.00 68 1011.2
20260509064430 11 160 1.6 4.8 0.00 0.00 0.00 68 1011.3
20260509063929 11 160 3.2 8.0 0.00 0.00 0.00 67 1011.3
20260509063429 11 160 4.8 8.0 0.00 0.00 0.00 67 1011.3
20260509062930 11 157 4.8 6.4 0.00 0.00 0.00 67 1011.5
20260509062431 11 158 3.2 8.0 0.00 0.00 0.00 67 1011.5
20260509061930 11 156 3.2 8.0 0.00 0.00 0.00 67 1011.5
20260509061429 11 156 1.6 4.8 0.00 0.00 0.00 66 1011.5
20260509060927 11 156 0.0 3.2 0.00 0.00 0.00 66 1011.5
20260509060427 12 153 0.0 3.2 0.00 0.00 0.00 66 1011.7
20260509055925 12 153 3.2 11.3 0.00 0.00 0.00 65 1011.6
20260509055423 12 153 6.4 12.9 0.00 0.00 0.00 65 1011.6
20260509054922 12 159 6.4 12.9 0.00 0.00 0.00 65 1011.7
20260509054422 11 159 4.8 11.3 0.00 0.00 0.00 66 1011.6
20260509053418 11 168 1.6 8.0 0.00 0.00 0.00 66 1011.7
20260509052918 11 164 0.0 4.8 0.00 0.00 0.00 65 1011.7
20260509052418 11 164 1.6 3.2 0.00 0.00 0.00 66 1011.8
20260509051911 12 164 1.6 4.8 0.00 0.00 0.00 66 1011.7
20260509051405 12 164 3.2 12.9 0.00 0.00 0.00 66 1011.7
20260509050906 12 162 6.4 12.9 0.00 0.00 0.00 62 1011.7
20260509050404 12 157 6.4 12.9 0.00 0.00 0.00 63 1011.7
20260509045903 12 150 6.4 12.9 0.00 0.00 0.00 62 1011.7
20260509045404 13 147 6.4 12.9 0.00 0.00 0.00 62 1011.8
20260509044902 13 147 6.4 11.3 0.00 0.00 0.00 62 1011.8
20260509044403 13 146 4.8 8.0 0.00 0.00 0.00 61 1012.0
20260509043902 13 154 4.8 12.9 0.00 0.00 0.00 61 1012.0
20260509043402 13 155 4.8 12.9 0.00 0.00 0.00 62 1012.0
20260509042903 13 161 3.2 6.4 0.00 0.00 0.00 61 1012.1
20260509042403 13 161 3.2 6.4 0.00 0.00 0.00 60 1012.1
20260509041902 12 161 4.8 8.0 0.00 0.00 0.00 61 1012.1
20260509041359 12 161 4.8 8.0 0.00 0.00 0.00 62 1012.1
20260509040902 12 164 4.8 9.7 0.00 0.00 0.00 63 1012.0
20260509040356 12 165 3.2 9.7 0.00 0.00 0.00 62 1012.1
20260509035854 11 174 1.6 6.4 0.00 0.00 0.00 63 1012.0
20260509035355 11 174 0.0 3.2 0.00 0.00 0.00 63 1012.1
20260509034854 11 174 0.0 3.2 0.00 0.00 0.00 62 1012.1
20260509034355 11 174 1.6 6.4 0.00 0.00 0.00 63 1012.1
20260509033853 11 174 0.0 6.4 0.00 0.00 0.00 64 1012.1
20260509033354 11 174 0.0 3.2 0.00 0.00 0.00 63 1012.3
20260509032854 11 174 0.0 3.2 0.00 0.00 0.00 65 1012.2
20260509032354 11 174 0.0 0.0 0.00 0.00 0.00 66 1012.2
20260509031854 12 174 0.0 1.6 0.00 0.00 0.00 65 1012.3
20260509031353 12 174 0.0 3.2 0.00 0.00 0.00 65 1012.2
20260509030849 12 174 0.0 3.2 0.00 0.00 0.00 63 1012.2
20260509030347 12 174 0.0 1.6 0.00 0.00 0.00 63 1012.2
20260509025846 12 174 0.0 1.6 0.00 0.00 0.00 65 1012.2
20260509025344 12 174 1.6 6.4 0.00 0.00 0.00 68 1012.3
20260509024843 12 174 1.6 6.4 0.00 0.00 0.00 64 1012.4
20260509024344 12 174 0.0 3.2 0.00 0.00 0.00 66 1012.4
20260509023844 12 174 0.0 0.0 0.00 0.00 0.00 64 1012.5
20260509023344 12 174 0.0 3.2 0.00 0.00 0.00 65 1012.5
20260509022841 12 174 0.0 3.2 0.00 0.00 0.00 64 1012.5
20260509022332 12 174 0.0 3.2 0.00 0.00 0.00 66 1012.6
20260509021834 12 174 1.6 3.2 0.00 0.00 0.00 65 1012.6
20260509021333 12 174 1.6 3.2 0.00 0.00 0.00 65 1012.7
20260509020833 12 174 0.0 1.6 0.00 0.00 0.00 65 1012.7
20260509020335 12 174 0.0 3.2 0.00 0.00 0.00 64 1012.6
20260509015832 12 174 0.0 3.2 0.00 0.00 0.00 64 1012.4
20260509015331 12 174 1.6 3.2 0.00 0.00 0.00 61 1012.4
20260509014832 12 174 3.2 3.2 0.00 0.00 0.00 62 1012.4
20260509014332 12 174 3.2 6.4 0.00 0.00 0.00 63 1012.3
20260509013832 12 174 4.8 6.4 0.00 0.00 0.00 66 1012.3
20260509013332 12 174 3.2 6.4 0.00 0.00 0.00 67 1012.3
20260509012835 12 174 3.2 6.4 0.00 0.00 0.00 66 1012.3
20260509012332 12 174 4.8 6.4 0.00 0.00 0.00 66 1012.3
20260509011835 13 174 3.2 8.0 0.00 0.00 0.00 66 1012.3
20260509011334 13 174 0.0 8.0 0.00 0.00 0.00 65 1012.2
20260509010836 13 178 1.6 6.4 0.00 0.00 0.00 63 1012.3
20260509010332 13 178 1.6 6.4 0.00 0.00 0.00 60 1012.4
20260509005834 13 172 0.0 3.2 0.00 0.00 0.00 61 1012.4
20260509005333 13 172 1.6 4.8 0.00 0.00 0.00 59 1012.4
20260509004834 13 170 3.2 8.0 0.00 0.00 0.00 59 1012.3
20260509004331 13 170 4.8 8.0 0.00 0.00 0.00 58 1012.3
20260509003829 13 170 4.8 8.0 0.00 0.00 0.00 58 1012.2
20260509003324 13 171 4.8 8.0 0.00 0.00 0.00 60 1012.3
20260509002825 14 213 4.8 6.4 0.00 0.00 0.00 58 1012.2
20260509002324 13 213 3.2 6.4 0.00 0.00 0.00 57 1012.2
20260509001823 14 215 1.6 6.4 0.00 0.00 0.00 57 1012.1
20260509001324 14 215 0.0 1.6 0.00 0.00 0.00 55 1012.0
20260509000821 14 215 1.6 4.8 0.00 0.00 0.00 55 1011.8
20260509000325 15 215 1.6 4.8 0.00 0.00 0.00 55 1012.0
20260508235818 15 294 1.6 4.8 0.00 0.00 0.00 53 1011.9
20260508235317 15 294 3.2 4.8 0.00 0.00 0.00 54 1011.7
20260508234814 15 296 3.2 4.8 0.00 0.00 0.00 54 1011.7
20260508234315 15 299 3.2 8.0 0.00 0.00 0.00 52 1011.6
20260508233817 15 299 3.2 11.3 0.00 0.00 0.00 52 1011.6
20260508233324 16 267 3.2 11.3 0.00 0.00 0.00 53 1011.7
20260508232810 16 303 3.2 11.3 0.00 0.00 0.00 52 1011.7
20260508232313 16 279 3.2 9.7 0.00 0.00 0.00 51 1011.7
20260508231806 16 274 4.8 9.7 0.00 0.00 0.00 51 1011.7
20260508231306 16 269 3.2 9.7 0.00 0.00 0.00 50 1011.6
20260508230806 16 274 4.8 9.7 0.00 0.00 0.00 54 1011.6
20260508230309 16 276 4.8 12.9 0.00 0.00 0.00 51 1011.6
20260508225811 16 249 3.2 12.9 0.00 0.00 0.00 53 1011.5
20260508225307 16 265 4.8 12.9 0.00 0.00 0.00 54 1011.5
20260508224806 16 269 4.8 12.9 0.00 0.00 0.00 51 1011.7